Home > Weather > Germantown > Past weeks

Flag for USA Past Weather in Germantown, Maryland, USA — Yesterday and Last 2 Weeks

Now
66 °F

Fog.


Feels Like: 66 °F
Forecast: 66 / 87 °F
Wind: No wind

Location: Frederick Municipal Airport

Current Time: Aug 28, 2016 at 3:07:40 AM

Latest Report: Aug 28, 2016 at 2:30 AM


Visibility: 5 mi

Pressure: 30.23 "Hg

Humidity: 100%

Dew Point: 66 °F

Location of GermantownLocation

Past Weather in Germantown — Graph

°F

Germantown Temperature Yesterday

Maximum temperature yesterday: 90 °F (at 1:50 PM)
Minimum temperature yesterday: 66 °F (at 6:55 AM)
Average temperature yesterday: 74 °F

High & Low Weather Summary for the Past Weeks

 TemperatureHumidityPressure
High99 °F (Aug 13, 4:47 PM)100% (Aug 13, 1:10 AM)30.38 "Hg (Aug 13, 1:10 AM)
Low55 °F (Aug 23, 4:55 AM)45% (Aug 22, 2:47 PM)29.79 "Hg (Aug 21, 4:53 PM)
Average75 °F89%30.09 "Hg
* Reported Aug 13 1:10 AM — Aug 28 1:50 AM, Germantown, Weather by CustomWeather, © 2016

Note: Actual official high and low records may vary slightly from our data, if they occured in-between our weather recording intervals... More about our weather records

Advertising

Germantown Weather History for the Previous 24 Hours

Scroll right to see more
 ConditionsComfort  
Time TempWeatherWind HumidityBarometerVisibility
1:50 AM
Sun, Aug 28
68 °FFog.No wind100%30.22 "Hg1 mi
1:30 AM68 °FClear.No wind100%30.23 "Hg7 mi
1:10 AM68 °FClear.No wind100%30.23 "Hg10 mi
12:50 AM68 °FFog.No wind100%30.23 "Hg4 mi
12:30 AM68 °FFog.No wind100%30.22 "Hg5 mi
12:10 AM70 °FFog.No wind100%30.22 "Hg5 mi
11:50 PM
Sat, Aug 27
70 °FClear.No wind100%30.23 "Hg7 mi
11:30 PM72 °FClear.No wind100%30.23 "Hg7 mi
11:10 PM70 °FFog.No wind100%30.23 "Hg2 mi
10:50 PM72 °FClear.No wind100%30.23 "Hg10 mi
10:30 PM72 °FClear.No wind100%30.23 "Hg7 mi
10:10 PM73 °FClear.No wind100%30.23 "Hg10 mi
9:50 PM73 °FClear.No wind100%30.23 "Hg10 mi
9:30 PM73 °FClear.No wind100%30.22 "Hg10 mi
9:10 PM72 °FClear.No wind100%30.21 "Hg10 mi
8:50 PM73 °FClear.No wind100%30.20 "Hg10 mi
8:30 PM79 °FSunny.No wind84%30.19 "Hg10 mi
7:50 PM81 °FSunny.3 mph79%30.18 "Hg10 mi
6:48 PM86 °FSunny.3 mph66%30.17 "Hg10 mi
5:47 PM88 °FPassing clouds.5 mph59%30.17 "Hg10 mi
4:50 PM90 °FScattered clouds.6 mph52%30.17 "Hg10 mi
3:50 PM90 °FScattered clouds.No wind52%30.18 "Hg10 mi
2:55 PM90 °FPartly sunny.6 mph55%30.19 "Hg10 mi
1:50 PM90 °FSunny.No wind55%30.20 "Hg10 mi
12:50 PM88 °FScattered clouds.3 mph59%30.21 "Hg10 mi
11:50 AM88 °FSunny.3 mph59%30.22 "Hg10 mi
10:47 AM84 °FSunny.3 mph66%30.22 "Hg10 mi
9:47 AM81 °FSunny.5 mph74%30.23 "Hg10 mi
8:47 AM70 °FSunny.No wind100%30.21 "Hg10 mi
7:47 AM70 °FSunny.No wind100%30.21 "Hg10 mi
6:55 AM66 °FClear.No wind100%30.20 "Hg10 mi
6:10 AM68 °FClear.No wind100%30.18 "Hg7 mi
5:50 AM68 °FClear.No wind100%30.18 "Hg10 mi
5:30 AM68 °FClear.No wind100%30.17 "Hg7 mi
5:10 AM68 °FClear.No wind100%30.16 "Hg10 mi
4:50 AM68 °FClear.No wind100%30.16 "Hg7 mi
4:30 AM68 °FClear.No wind100%30.15 "Hg10 mi
4:10 AM68 °FFog.No wind100%30.15 "Hg5 mi
3:50 AM68 °FClear.No wind100%30.15 "Hg7 mi
3:30 AM68 °FClear.No wind100%30.15 "Hg7 mi
3:10 AM68 °FClear.No wind100%30.14 "Hg10 mi
Weather by CustomWeather, © 2016

See weather overviewHow to use our weather pages